SCP
0 0 0 0 0 0 0 0 0 0 0 0 0 0 0 0 0 0 0 0 0 0 0 0 0 0 0 0 0 0 0 0 1 0 1 0 1 1
0 0 0 0 0 0 0 0 0 0 0 0 0 0 0 0 0 0 0 0 0 0 0 0 0 0 0 0 0 0 0 0 0 1 0 1 1 1
0 -0 0 0 0 0 0 0 0 0 0 0 -0 -0 0 0 0 0 0 0 0 0 0 0 0 0 0 0 0 0 0 0 0 0 0 0 0 1
0 0 0 0 0 -0 0 -0 -0 -0 0 -0 -0 -0 0 0 0 0 0 0 0 0 0 0 0 0 0 0 0 0 0 0 0 0 1 0 0 0
0 0 0 0 -0 -0 -0 -0 -0 -0 -0 -0 -0 -0 0 0 0 0 0 0 0 -0 -0 0 0 0 0 0 0 0 0 0 0 0 0 0 0 0
-0 0 -0 -0 -0 -0 -0 -0 -0 -0 -0 -0 -0 0 0 0 0 0 0 0 0 0 0 -0 0 -0 -0 0 0 0 0 0 0 0 0 0 0 0
0 0 0 -0 -0 -0 0 -0 -0 -0 0 0 0 -0 0 0 0 0 0 0 0 0 0 0 -0 0 0 -0 -0 -0 0 0 0 0 0 0 0 0
0 0 0 0 -0 -0 -0 -0 -0 -0 -0 0 0 0 0 0 0 0 0 -0 -0 0 0 -0 -0 -0 0 0 -0 -0 -0 0 0 0 0 0 0 0
0 0 0 0 0 0 -0 -0 -0 -0 -0 0 0 0 0 0 0 0 -0 0 -0 0 0 0 0 -0 -0 0 -0 -0 -0 -0 0 0 0 0 0 0
0 0 0 0 0 0 -0 -0 -0 -0 -0 -0 -0 -0 -0 0 0 -0 -0 -0 -0 0 0 0 0 0 0 -0 0 -0 -0 -0 -0 -0 -0 -0 0 0
0 0 0 0 0 0 0 0 -0 -0 0 -0 -0 0 -0 0 -0 0 0 0 -0 -0 -0 0 0 0 0 0 0 -0 0 -0 -0 -0 -0 -0 0 0
0 0 0 0 0 0 0 0 0 0 0 0 0 -0 0 0 0 0 0 0 0 -0 0 0 0 0 0 0 0 0 0 0 0 0 0 0 0 0
0 0 0 0 0 0 0 0 0 0 0 0 0 0 0 0 0 0 0 0 0 -0 0 0 0 -0 0 0 0 0 0 0 0 0 0 0 0 0
0 0 0 -0 0 0 0 0 0 0 0 0 0 0 0 0 0 0 0 0 -0 -0 0 -0 0 0 -0 0 0 -0 0 0 -0 0 0 0 0 0
0 0 0 -0 -0 0 0 0 0 0 0 0 0 0 0 0 0 0 0 0 -0 0 -0 -0 0 -0 -0 0 0 -0 0 0 0 0 0 0 0 0
0 0 0 0 0 0 0 0 0 0 0 0 0 0 0 0 0 0 0 0 0 0 0 0 0 0 0 0 0 0 0 0 0 0 0 0 0 0
0 0 0 0 0 0 0 0 0 0 0 0 0 0 0 0 0 0 -0 0 0 0 0 0 0 0 0 0 0 0 0 0 0 0 0 0 0 0
0 -0 0 0 0 0 0 0 0 0 0 0 0 -0 0 0 0 0 0 0 0 0 0 0 0 0 0 0 0 0 0 0 0 0 0 0 0 0
0 -0 -0 0 0 -0 0 0 0 -0 0 0 0 0 0 0 0 0 0 0 0 0 0 0 0 0 0 0 0 0 0 0 0 0 0 0 0 0
0 -0 -0 -0 0 0 0 0 0 0 0 0 -0 -0 -0 0 0 0 0 0 0 0 0 0 0 0 0 0 0 0 0 0 0 0 0 0 0 -0
0 -0 -0 0 -0 -0 0 0 0 -0 -0 -0 -0 0 0 0 0 0 0 0 0 0 -0 0 0 0 0 0 0 0 0 0 0 0 0 0 0 0
-0 0 0 -0 -0 0 0 0 -0 -0 -0 -0 -0 -0 -0 -0 0 0 0 0 0 0 0 -0 0 0 0 0 0 0 0 0 0 0 0 0 0 -0
0 -0 0 0 0 0 -0 0 -0 -0 -0 -0 -0 -0 -0 0 -0 -0 -0 0 0 0 0 0 0 0 0 0 0 0 0 0 0 0 -0 -0 -0 -0
Wind_Speed_500mb
34 29 26 27 20 15 17 17 14 13 15 15 13 23 13 6 11 24 14 18 16 24 27 36 40 43 48 51 52 52 50 49 48 49 46 45 46 49
40 40 28 19 17 17 14 16 15 14 11 10 12 18 13 9 12 21 9 9 13 20 29 31 36 39 41 45 50 50 44 45 45 50 46 45 44 43
38 38 15 12 10 4 9 9 15 11 9 4 12 11 16 9 13 16 11 12 13 20 23 24 30 35 36 38 44 46 43 41 42 46 47 45 43 39
43 39 25 13 10 13 10 7 9 7 4 7 12 19 21 19 19 16 10 5 12 15 18 19 16 25 28 33 40 44 44 44 39 41 42 43 40 37
38 33 24 17 12 18 14 4 11 10 11 12 17 19 10 20 38 44 37 19 7 11 8 15 15 23 26 33 35 37 42 46 41 40 41 41 40 36
33 29 28 25 24 21 19 6 9 11 14 15 17 11 8 13 17 24 30 36 49 47 37 27 10 9 16 20 27 36 46 48 43 40 39 40 42 38
30 27 31 30 28 22 24 17 15 16 18 16 15 14 12 12 10 10 3 9 25 39 54 65 46 25 28 20 25 35 43 46 44 42 40 41 43 40
40 32 26 22 27 25 20 16 17 21 19 18 23 26 26 22 15 10 4 7 12 27 44 59 65 61 56 33 25 28 39 42 40 43 44 45 40 39
40 45 39 31 28 27 24 21 21 21 21 17 15 12 13 13 16 17 18 34 35 26 32 50 44 60 64 62 35 25 26 34 39 42 41 41 46 50
41 41 49 49 41 39 35 29 28 19 14 10 11 14 17 20 20 20 29 36 33 27 33 53 39 45 47 51 52 57 58 53 61 63 65 76 79 78
46 42 30 32 28 22 22 33 34 43 38 32 26 30 31 38 37 32 31 31 24 31 37 50 47 50 46 43 41 39 41 43 62 63 60 60 41 43
33 32 38 35 22 23 25 30 38 37 33 35 38 32 29 28 20 26 21 10 14 18 20 34 26 26 42 39 39 35 36 29 31 45 53 44 36 37
25 26 28 35 32 33 33 21 24 17 31 20 19 19 26 21 13 14 15 11 7 12 12 9 15 17 25 27 35 40 37 35 31 45 45 46 37 30
19 20 20 24 30 32 24 21 15 17 14 17 18 16 14 14 14 14 13 13 20 17 19 23 19 22 27 27 24 28 33 37 30 28 33 36 28 27
22 23 18 14 16 17 20 24 20 16 14 14 16 15 27 23 23 27 33 29 22 21 17 21 23 24 19 23 26 22 25 20 19 22 28 24 21 22
27 22 26 18 11 5 9 14 13 8 14 12 11 10 11 12 14 14 17 16 19 19 23 25 20 17 22 20 20 20 18 17 18 15 15 13 14 12
28 24 24 18 8 4 7 2 13 12 10 7 8 11 13 13 14 14 15 17 19 17 16 17 18 17 18 17 17 14 14 16 15 14 17 10 10 10
27 25 25 19 9 5 4 8 2 5 4 6 9 11 12 14 14 13 13 14 17 18 17 16 18 16 11 12 14 13 14 15 14 15 12 9 7 9
36 27 27 19 10 3 1 2 4 1 1 3 5 10 14 12 11 7 7 9 14 13 12 13 13 13 15 12 10 19 14 13 13 10 6 7 4 9
33 25 25 21 11 4 5 3 1 3 1 6 8 11 8 7 5 7 5 3 5 10 10 8 6 8 8 10 11 16 22 18 14 11 9 8 10 16
28 29 20 21 14 9 11 13 5 10 6 8 7 10 5 2 1 1 1 5 6 3 6 11 10 9 5 11 13 10 14 22 24 16 10 10 14 16
24 25 11 16 12 17 14 17 15 8 8 10 6 10 11 2 4 13 8 4 7 3 6 5 14 15 9 8 11 12 12 7 9 11 13 15 15 11
21 18 18 9 13 18 17 18 17 14 14 8 9 11 6 15 13 9 7 8 10 11 13 13 6 6 3 9 6 16 13 13 13 9 7 9 6 2
Wind_Direction_500mb
323 315 310 295 282 291 289 295 298 316 331 337 6 346 352 7 44 122 126 202 217 232 228 231 244 242 240 241 241 235 233 231 233 228 228 226 224 223
337 327 315 304 279 279 289 295 307 300 297 341 1 2 339 333 333 342 344 302 278 269 251 249 242 241 239 237 231 225 226 227 228 221 222 219 216 219
1 352 314 314 314 275 325 324 317 315 299 20 348 3 358 334 344 303 299 301 311 304 276 250 243 238 242 236 226 219 222 221 220 215 212 212 211 213
16 17 23 27 74 354 338 4 346 1 15 90 43 42 34 35 15 7 349 352 309 296 302 287 277 246 233 228 222 221 218 213 212 209 205 208 207 207
19 33 40 27 10 350 346 2 36 52 65 82 60 73 38 68 75 58 55 66 110 240 252 272 271 257 233 221 216 215 210 205 203 201 201 203 201 198
25 37 36 36 32 39 23 66 52 64 62 73 70 61 68 114 93 76 61 68 83 83 89 101 114 277 202 202 199 204 195 192 190 194 195 198 199 196
33 42 44 40 44 57 59 77 67 61 70 81 72 63 63 119 119 108 93 123 63 77 73 79 87 111 116 118 138 161 173 177 183 188 191 197 198 194
45 44 38 39 37 46 53 62 56 68 70 80 83 77 79 83 80 107 129 174 73 85 81 74 75 81 77 92 125 154 163 169 180 190 192 197 194 180
52 44 39 53 63 56 56 58 64 70 70 71 70 71 80 74 72 86 94 85 74 68 82 79 75 80 84 80 85 148 157 174 176 181 180 181 181 182
57 49 50 60 61 59 47 48 48 40 33 48 63 98 71 90 114 96 79 65 55 53 72 75 77 82 83 88 89 88 105 145 159 166 173 167 152 146
54 54 45 37 46 47 48 46 58 56 69 72 82 92 91 96 90 81 77 88 77 74 82 81 75 74 72 81 91 100 100 105 118 119 118 123 125 131
29 39 37 38 36 33 37 55 72 68 65 67 67 77 73 63 73 73 53 46 92 89 70 55 59 44 62 57 74 89 103 110 113 119 119 123 137 137
36 30 23 38 51 62 70 74 70 84 55 64 69 51 47 50 62 65 74 56 84 96 123 74 60 82 99 106 80 87 91 107 106 104 103 102 102 110
22 10 20 39 55 72 72 71 51 87 81 73 76 64 70 76 63 59 85 118 127 139 122 85 106 111 114 112 111 82 85 82 88 93 105 116 120 118
10 7 18 26 42 53 65 70 67 55 70 68 77 72 60 70 60 43 48 51 81 87 99 100 121 113 110 117 121 120 120 122 133 131 121 133 138 141
326 342 341 353 56 89 36 38 26 20 63 77 70 80 77 77 80 72 79 67 75 76 108 116 111 112 114 118 124 125 128 135 138 130 124 136 146 154
328 340 329 344 18 98 78 338 68 71 39 48 73 101 82 87 87 88 78 82 80 83 87 85 104 115 123 116 125 127 131 134 137 153 137 145 168 185
319 322 324 333 358 55 122 78 203 52 56 34 60 72 73 88 95 88 91 95 98 99 100 103 110 110 109 124 126 139 138 142 158 159 187 190 176 199
307 306 309 318 341 38 256 218 80 20 44 108 69 87 90 102 66 62 65 101 103 107 129 148 157 154 142 132 166 161 154 162 166 163 163 209 189 195
310 297 295 299 298 278 187 131 91 102 358 63 104 86 89 89 76 62 67 38 88 118 119 142 149 59 126 141 166 190 172 169 180 187 191 210 223 232
299 303 291 293 278 241 217 185 183 181 137 146 157 166 158 310 71 236 52 313 221 203 144 136 175 187 107 121 126 160 187 191 191 195 212 237 238 245
294 317 280 291 251 235 217 201 195 191 197 208 228 200 239 301 155 265 236 223 257 64 69 58 117 159 172 219 122 140 154 147 121 137 178 207 231 275
299 313 313 301 258 222 225 207 217 198 233 251 222 235 276 238 258 264 237 252 162 135 133 128 143 218 234 136 157 151 165 196 227 251 218 140 120 180
Wind_Speed_850mb
34 29 26 27 20 15 17 17 14 13 15 15 13 23 13 6 11 24 14 18 16 24 27 36 40 43 48 51 52 52 50 49 48 49 46 45 46 49
40 40 28 19 17 17 14 16 15 14 11 10 12 18 13 9 12 21 9 9 13 20 29 31 36 39 41 45 50 50 44 45 45 50 46 45 44 43
38 38 15 12 10 4 9 9 15 11 9 4 12 11 16 9 13 16 11 12 13 20 23 24 30 35 36 38 44 46 43 41 42 46 47 45 43 39
43 39 25 13 10 13 10 7 9 7 4 7 12 19 21 19 19 16 10 5 12 15 18 19 16 25 28 33 40 44 44 44 39 41 42 43 40 37
38 33 24 17 12 18 14 4 11 10 11 12 17 19 10 20 38 44 37 19 7 11 8 15 15 23 26 33 35 37 42 46 41 40 41 41 40 36
33 29 28 25 24 21 19 6 9 11 14 15 17 11 8 13 17 24 30 36 49 47 37 27 10 9 16 20 27 36 46 48 43 40 39 40 42 38
30 27 31 30 28 22 24 17 15 16 18 16 15 14 12 12 10 10 3 9 25 39 54 65 46 25 28 20 25 35 43 46 44 42 40 41 43 40
40 32 26 22 27 25 20 16 17 21 19 18 23 26 26 22 15 10 4 7 12 27 44 59 65 61 56 33 25 28 39 42 40 43 44 45 40 39
40 45 39 31 28 27 24 21 21 21 21 17 15 12 13 13 16 17 18 34 35 26 32 50 44 60 64 62 35 25 26 34 39 42 41 41 46 50
41 41 49 49 41 39 35 29 28 19 14 10 11 14 17 20 20 20 29 36 33 27 33 53 39 45 47 51 52 57 58 53 61 63 65 76 79 78
46 42 30 32 28 22 22 33 34 43 38 32 26 30 31 38 37 32 31 31 24 31 37 50 47 50 46 43 41 39 41 43 62 63 60 60 41 43
33 32 38 35 22 23 25 30 38 37 33 35 38 32 29 28 20 26 21 10 14 18 20 34 26 26 42 39 39 35 36 29 31 45 53 44 36 37
25 26 28 35 32 33 33 21 24 17 31 20 19 19 26 21 13 14 15 11 7 12 12 9 15 17 25 27 35 40 37 35 31 45 45 46 37 30
19 20 20 24 30 32 24 21 15 17 14 17 18 16 14 14 14 14 13 13 20 17 19 23 19 22 27 27 24 28 33 37 30 28 33 36 28 27
22 23 18 14 16 17 20 24 20 16 14 14 16 15 27 23 23 27 33 29 22 21 17 21 23 24 19 23 26 22 25 20 19 22 28 24 21 22
27 22 26 18 11 5 9 14 13 8 14 12 11 10 11 12 14 14 17 16 19 19 23 25 20 17 22 20 20 20 18 17 18 15 15 13 14 12
28 24 24 18 8 4 7 2 13 12 10 7 8 11 13 13 14 14 15 17 19 17 16 17 18 17 18 17 17 14 14 16 15 14 17 10 10 10
27 25 25 19 9 5 4 8 2 5 4 6 9 11 12 14 14 13 13 14 17 18 17 16 18 16 11 12 14 13 14 15 14 15 12 9 7 9
36 27 27 19 10 3 1 2 4 1 1 3 5 10 14 12 11 7 7 9 14 13 12 13 13 13 15 12 10 19 14 13 13 10 6 7 4 9
33 25 25 21 11 4 5 3 1 3 1 6 8 11 8 7 5 7 5 3 5 10 10 8 6 8 8 10 11 16 22 18 14 11 9 8 10 16
28 29 20 21 14 9 11 13 5 10 6 8 7 10 5 2 1 1 1 5 6 3 6 11 10 9 5 11 13 10 14 22 24 16 10 10 14 16
24 25 11 16 12 17 14 17 15 8 8 10 6 10 11 2 4 13 8 4 7 3 6 5 14 15 9 8 11 12 12 7 9 11 13 15 15 11
21 18 18 9 13 18 17 18 17 14 14 8 9 11 6 15 13 9 7 8 10 11 13 13 6 6 3 9 6 16 13 13 13 9 7 9 6 2
Wind_Direction_850mb
323 315 310 295 282 291 289 295 298 316 331 337 6 346 352 7 44 122 126 202 217 232 228 231 244 242 240 241 241 235 233 231 233 228 228 226 224 223
337 327 315 304 279 279 289 295 307 300 297 341 1 2 339 333 333 342 344 302 278 269 251 249 242 241 239 237 231 225 226 227 228 221 222 219 216 219
1 352 314 314 314 275 325 324 317 315 299 20 348 3 358 334 344 303 299 301 311 304 276 250 243 238 242 236 226 219 222 221 220 215 212 212 211 213
16 17 23 27 74 354 338 4 346 1 15 90 43 42 34 35 15 7 349 352 309 296 302 287 277 246 233 228 222 221 218 213 212 209 205 208 207 207
19 33 40 27 10 350 346 2 36 52 65 82 60 73 38 68 75 58 55 66 110 240 252 272 271 257 233 221 216 215 210 205 203 201 201 203 201 198
25 37 36 36 32 39 23 66 52 64 62 73 70 61 68 114 93 76 61 68 83 83 89 101 114 277 202 202 199 204 195 192 190 194 195 198 199 196
33 42 44 40 44 57 59 77 67 61 70 81 72 63 63 119 119 108 93 123 63 77 73 79 87 111 116 118 138 161 173 177 183 188 191 197 198 194
45 44 38 39 37 46 53 62 56 68 70 80 83 77 79 83 80 107 129 174 73 85 81 74 75 81 77 92 125 154 163 169 180 190 192 197 194 180
52 44 39 53 63 56 56 58 64 70 70 71 70 71 80 74 72 86 94 85 74 68 82 79 75 80 84 80 85 148 157 174 176 181 180 181 181 182
57 49 50 60 61 59 47 48 48 40 33 48 63 98 71 90 114 96 79 65 55 53 72 75 77 82 83 88 89 88 105 145 159 166 173 167 152 146
54 54 45 37 46 47 48 46 58 56 69 72 82 92 91 96 90 81 77 88 77 74 82 81 75 74 72 81 91 100 100 105 118 119 118 123 125 131
29 39 37 38 36 33 37 55 72 68 65 67 67 77 73 63 73 73 53 46 92 89 70 55 59 44 62 57 74 89 103 110 113 119 119 123 137 137
36 30 23 38 51 62 70 74 70 84 55 64 69 51 47 50 62 65 74 56 84 96 123 74 60 82 99 106 80 87 91 107 106 104 103 102 102 110
22 10 20 39 55 72 72 71 51 87 81 73 76 64 70 76 63 59 85 118 127 139 122 85 106 111 114 112 111 82 85 82 88 93 105 116 120 118
10 7 18 26 42 53 65 70 67 55 70 68 77 72 60 70 60 43 48 51 81 87 99 100 121 113 110 117 121 120 120 122 133 131 121 133 138 141
326 342 341 353 56 89 36 38 26 20 63 77 70 80 77 77 80 72 79 67 75 76 108 116 111 112 114 118 124 125 128 135 138 130 124 136 146 154
328 340 329 344 18 98 78 338 68 71 39 48 73 101 82 87 87 88 78 82 80 83 87 85 104 115 123 116 125 127 131 134 137 153 137 145 168 185
319 322 324 333 358 55 122 78 203 52 56 34 60 72 73 88 95 88 91 95 98 99 100 103 110 110 109 124 126 139 138 142 158 159 187 190 176 199
307 306 309 318 341 38 256 218 80 20 44 108 69 87 90 102 66 62 65 101 103 107 129 148 157 154 142 132 166 161 154 162 166 163 163 209 189 195
310 297 295 299 298 278 187 131 91 102 358 63 104 86 89 89 76 62 67 38 88 118 119 142 149 59 126 141 166 190 172 169 180 187 191 210 223 232
299 303 291 293 278 241 217 185 183 181 137 146 157 166 158 310 71 236 52 313 221 203 144 136 175 187 107 121 126 160 187 191 191 195 212 237 238 245
294 317 280 291 251 235 217 201 195 191 197 208 228 200 239 301 155 265 236 223 257 64 69 58 117 159 172 219 122 140 154 147 121 137 178 207 231 275
299 313 313 301 258 222 225 207 217 198 233 251 222 235 276 238 258 264 237 252 162 135 133 128 143 218 234 136 157 151 165 196 227 251 218 140 120 180